Wetterdaten: aktuell Sonntag, 25.02.2018 08:21
Datum Zeit Temp. A. Pool Temp. Feuchte A. Luftdruck Regen Wind Richtung Richtung Sonnenschein ET UV Solar Taupunkt Windchill Windben Empfang
25.02.2018 08:21 -8,7 C 3,3 C 75 % 1025,7 hPa 0,0 l/m 21,6 km/h (4 Bft) O-NO 78 1 min 0,000 mm 0,0 UV-I 190 W/m -12,3 C -21,8 C 29,0 km/h (5 Bft) 89,66 %
25.02.2018 08:20 -8,7 C 3,3 C 75 % 1025,7 hPa 0,0 l/m 17,6 km/h (3 Bft) O-NO 73 1 min 0,000 mm 0,0 UV-I 188 W/m -12,3 C -19,4 C 20,9 km/h (4 Bft) 97,73 %
25.02.2018 08:19 -8,7 C 3,3 C 75 % 1025,7 hPa 0,0 l/m 19,8 km/h (3 Bft) O 86 1 min 0,000 mm 0,0 UV-I 185 W/m -12,3 C -20,8 C 24,1 km/h (4 Bft) 97,93 %
25.02.2018 08:18 -8,7 C 3,3 C 75 % 1025,7 hPa 0,0 l/m 16,2 km/h (3 Bft) O-NO 70 1 min 0,000 mm 0,0 UV-I 183 W/m -12,3 C -18,4 C 20,9 km/h (4 Bft) 100,00 %
25.02.2018 08:17 -8,7 C 3,3 C 76 % 1025,7 hPa 0,0 l/m 20,9 km/h (4 Bft) O-NO 77 1 min 0,000 mm 0,0 UV-I 180 W/m -12,1 C -21,4 C 29,0 km/h (5 Bft) 97,56 %
25.02.2018 08:16 -8,7 C 3,3 C 76 % 1025,7 hPa 0,0 l/m 20,8 km/h (4 Bft) O-NO 77 1 min 0,000 mm 0,0 UV-I 179 W/m -12,1 C -21,3 C 32,2 km/h (5 Bft) 97,92 %
25.02.2018 08:15 -8,7 C 3,3 C 76 % 1025,7 hPa 0,0 l/m 19,0 km/h (3 Bft) O-NO 61 1 min 0,000 mm 0,0 UV-I 177 W/m -12,1 C -20,3 C 22,5 km/h (4 Bft) 96,15 %
25.02.2018 08:14 -8,7 C 3,3 C 76 % 1025,7 hPa 0,0 l/m 19,4 km/h (3 Bft) O-NO 67 1 min 0,000 mm 0,0 UV-I 173 W/m -12,1 C -20,5 C 22,5 km/h (4 Bft) 100,00 %
25.02.2018 08:13 -8,7 C 3,3 C 76 % 1025,7 hPa 0,0 l/m 15,0 km/h (3 Bft) N-NO 30 1 min 0,000 mm 0,0 UV-I 171 W/m -12,1 C -17,5 C 20,9 km/h (4 Bft) 94,74 %
25.02.2018 08:12 -8,8 C 3,3 C 76 % 1025,7 hPa 0,0 l/m 13,9 km/h (3 Bft) NO 44 1 min 0,000 mm 0,0 UV-I 168 W/m -12,2 C -16,8 C 20,9 km/h (4 Bft) 93,33 %
25.02.2018 08:11 -8,8 C 3,3 C 76 % 1025,7 hPa 0,0 l/m 11,0 km/h (2 Bft) NO 47 1 min 0,000 mm 0,0 UV-I 164 W/m -12,2 C -14,2 C 14,5 km/h (3 Bft) 100,00 %
25.02.2018 08:10 -8,8 C 3,3 C 76 % 1025,7 hPa 0,0 l/m 13,5 km/h (3 Bft) NO 51 1 min 0,000 mm 0,0 UV-I 160 W/m -12,2 C -16,4 C 19,3 km/h (3 Bft) 96,97 %
25.02.2018 08:09 -8,9 C 3,3 C 76 % 1025,7 hPa 0,0 l/m 18,2 km/h (3 Bft) NO 41 1 min 0,000 mm 0,0 UV-I 156 W/m -12,3 C -20,0 C 20,9 km/h (4 Bft) 100,00 %
25.02.2018 08:08 -8,9 C 3,3 C 76 % 1025,7 hPa 0,0 l/m 15,2 km/h (3 Bft) NO 49 1 min 0,000 mm 0,0 UV-I 155 W/m -12,3 C -17,9 C 19,3 km/h (3 Bft) 91,67 %
25.02.2018 08:07 -8,9 C 3,3 C 77 % 1025,7 hPa 0,0 l/m 14,3 km/h (3 Bft) O 88 1 min 0,000 mm 0,0 UV-I 153 W/m -12,2 C -17,2 C 19,3 km/h (3 Bft) 96,15 %
25.02.2018 08:06 -8,9 C 3,3 C 77 % 1025,7 hPa 0,0 l/m 17,0 km/h (3 Bft) NO 38 1 min 0,000 mm 0,0 UV-I 151 W/m -12,2 C -19,2 C 24,1 km/h (4 Bft) 96,30 %
25.02.2018 08:05 -8,9 C 3,3 C 77 % 1025,7 hPa 0,0 l/m 21,0 km/h (4 Bft) O-NO 57 1 min 0,000 mm 0,0 UV-I 149 W/m -12,2 C -21,7 C 24,1 km/h (4 Bft) 96,15 %
25.02.2018 08:04 -9,0 C 3,3 C 78 % 1025,7 hPa 0,0 l/m 11,3 km/h (2 Bft) O-NO 70 1 min 0,000 mm 0,0 UV-I 147 W/m -12,1 C -14,7 C 16,1 km/h (3 Bft) 100,00 %
25.02.2018 08:03 -9,0 C 3,3 C 78 % 1025,7 hPa 0,0 l/m 14,7 km/h (3 Bft) O-NO 60 1 min 0,000 mm 0,0 UV-I 144 W/m -12,1 C -17,7 C 19,3 km/h (3 Bft) 96,15 %
25.02.2018 08:02 -9,0 C 3,3 C 78 % 1025,7 hPa 0,0 l/m 13,3 km/h (3 Bft) NO 44 1 min 0,000 mm 0,0 UV-I 142 W/m -12,1 C -16,5 C 17,7 km/h (3 Bft) 100,00 %
25.02.2018 08:01 -9,1 C 3,3 C 77 % 1025,8 hPa 0,0 l/m 10,8 km/h (2 Bft) NO 44 1 min 0,000 mm 0,0 UV-I 139 W/m -12,4 C -14,3 C 14,5 km/h (3 Bft) 96,15 %
25.02.2018 08:00 -9,1 C 3,3 C 77 % 1025,7 hPa 0,0 l/m 10,9 km/h (2 Bft) O 84 1 min 0,025 mm 0,0 UV-I 136 W/m -12,4 C -14,4 C 16,1 km/h (3 Bft) 100,00 %
25.02.2018 07:59 -9,1 C 3,3 C 77 % 1025,8 hPa 0,0 l/m 15,1 km/h (3 Bft) NO 53 1 min 0,000 mm 0,0 UV-I 132 W/m -12,4 C -18,1 C 17,7 km/h (3 Bft) 100,00 %
25.02.2018 07:58 -9,1 C 3,3 C 78 % 1025,7 hPa 0,0 l/m 10,6 km/h (2 Bft) NO 46 1 min 0,000 mm 0,0 UV-I 129 W/m -12,2 C -14,1 C 16,1 km/h (3 Bft) 93,33 %
25.02.2018 07:57 -9,2 C 3,3 C 78 % 1025,7 hPa 0,0 l/m 13,4 km/h (3 Bft) O-NO 61 1 min 0,000 mm 0,0 UV-I 127 W/m -12,3 C -16,8 C 19,3 km/h (3 Bft) 100,00 %
25.02.2018 07:56 -9,2 C 3,3 C 78 % 1025,7 hPa 0,0 l/m 10,0 km/h (2 Bft) O 91 1 min 0,000 mm 0,0 UV-I 125 W/m -12,3 C -13,6 C 16,1 km/h (3 Bft) 100,00 %
25.02.2018 07:55 -9,2 C 3,3 C 78 % 1025,7 hPa 0,0 l/m 12,5 km/h (3 Bft) O-NO 64 1 min 0,000 mm 0,0 UV-I 123 W/m -12,3 C -16,1 C 16,1 km/h (3 Bft) 100,00 %
25.02.2018 07:54 -9,2 C 3,3 C 78 % 1025,8 hPa 0,0 l/m 10,2 km/h (2 Bft) NO 50 1 min 0,000 mm 0,0 UV-I 121 W/m -12,3 C -13,8 C 12,9 km/h (3 Bft) 100,00 %
25.02.2018 07:53 -9,2 C 3,3 C 78 % 1025,8 hPa 0,0 l/m 9,2 km/h (2 Bft) NO 40 1 min 0,000 mm 0,0 UV-I 117 W/m -12,3 C -12,7 C 14,5 km/h (3 Bft) 100,00 %
25.02.2018 07:52 -9,2 C 3,3 C 78 % 1025,8 hPa 0,0 l/m 11,6 km/h (2 Bft) O-NO 63 1 min 0,000 mm 0,0 UV-I 115 W/m -12,3 C -15,2 C 16,1 km/h (3 Bft) 100,00 %
25.02.2018 07:51 -9,3 C 3,3 C 78 % 1025,8 hPa 0,0 l/m 15,7 km/h (3 Bft) NO 53 1 min 0,000 mm 0,0 UV-I 113 W/m -12,4 C -18,8 C 19,3 km/h (3 Bft) 100,00 %
_ Min-Zeit 06:55 00:00 00:08 03:17 - 07:25 - - - - - - 06:56 08:21 03:20 06:26
Minimum _ -9,7 C 3,3 C 71 % 1025,0 hPa - 5,7 km/h (1 Bft) - - - - - - -12,8 C -21,8 C 6,4 km/h (2 Bft) 83,33 %
_ Max-Zeit 00:00 00:00 07:28 07:51 00:00 01:18 - - 07:03 02:00 00:00 08:21 00:00 03:20 01:18 00:03
Maximum _ -6,7 C 3,3 C 80 % 1025,8 hPa 0,0 l/m 24,6 km/h
NO (4 Bft)
- - 1 min 0,026 mm 0,0 UV-I 190 W/m -10,7 C -8,2 C 32,2 km/h
NO (5 Bft)
100,00 %
Durchschnitt _ -8,4 C 3,3 C 76 % 1025,3 hPa #0,0 l/m 14,1 km/h (3 Bft) O-NO - #1:07 h #0,203 mm 0,0 UV-I 74 W/m -11,8 C -16,1 C 18,7 km/h (3 Bft) 97,83 %